Location: *
(48.8780°N, 19.2358°E)
Time: 06:48:07
(UTC+00:00)

Cosmos 1898 Rocket - Pass Details

Date: 18 October 2019
Orbit: 753 x 784 km, 74.0° (Epoch: 18 November)

Event Time Altitude Azimuth Distance (km) Brightness Sun altitude
Rises 18:49:48 0° 333° (NNW) 3,250 7.4 -30.2°
Reaches altitude 10° 18:52:12 10° 330° (NNW) 2,324 6.6 -30.5°
Enters shadow 18:56:42 54° 285° (WNW) 945 4.1 -31.2°
